Location: Newark
(49.2191°N, 12.6671°E)
Time: 01:10:13
(UTC+00:00)

Transit 4A - Pass Details

Date: 27 January 2020
Orbit: 872 x 973 km, 66.8° (Epoch: 19 February)

Event Time Altitude Azimuth Distance (km) Brightness Sun altitude
Rises 13:35:29 0° 324° (NW) 3,475 10.7 16.1°
Reaches altitude 10° 13:37:58 10° 324° (NW) 2,531 10.0 15.9°
Maximum altitude 13:43:50 88° 53° (NE) 882 8.1 15.3°
Drops below altitude 10° 13:49:42 10° 145° (SE) 2,535 10.5 14.8°
Sets 13:52:11 0° 146° (SE) 3,481 11.2 14.5°
